Regional Weather Roundup
Issued by NWS Upton, NY

Current Version | Previous Version | Text Only | Print | Product List | Glossary Off
Versions: 1 2 3 4 5 6 7 8 9 10 11 12 13 14 15 16 17 18 19 20 21 22 23 24 25 26 27 28 29 30 31 32 33 34 35 36 37 38 39 40 41 42 43 44 45 46 47 48 49 50
000 ASUS41 KOKX 091009 RWROKX REGIONAL WEATHER ROUNDUP NATIONAL WEATHER SERVICE NEW YORK NY 500 AM EST FRI DEC 09 2016 NOTE: "FAIR" INDICATES FEW OR NO CLOUDS BELOW 12,000 FEET WITH NO SIGNIFICANT WEATHER AND/OR OBSTRUCTIONS TO VISIBILITY. NYZ071-072-176-178-NJZ106-104-091100- NEW YORK CITY METRO AREA CITY SKY/WX TMP DP RH WIND PRES REMARKS Central Park N/A 34 18 51 MISG N/A Wall St Helipt SUNNY 34 22 61 W9 30.06S WCI 27 Bronx Bot Gard NOT AVBL LaGuardia APRT PTCLDY 34 18 52 W15G21 30.04S WCI 24 Kennedy INTL CLEAR 33 17 51 W16G24 30.06R WCI 23 Breezy Point N/A 32 N/A N/A W16G25 N/A WCI 21 Newark/Liberty PTCLDY 32 17 54 W16 30.06R WCI 21 Teterboro CLEAR 32 16 51 W8 30.05R WCI 25 $$ NYZ177-179-078>081-091100- LONG ISLAND NEW YORK CITY SKY/WX TMP DP RH WIND PRES REMARKS Jones Beach N/A 34 N/A N/A W21G28 N/A WCI 22 Matinecock PT N/A 36 N/A N/A W21G26 N/A WCI 24 Farmingdale CLEAR 32 17 54 NW13G22 30.03R WCI 22 MacArthur/ISP CLEAR 30 17 58 W10 30.00S WCI 21 Shirley PTCLDY 30 19 63 W7 30.01R WCI 23 Westhampton CLEAR 32 17 54 W13 30.00R WCI 22 Southampton NOT AVBL Bridgehampton NOT AVBL East Hampton N/A 33 19 54 W13G18 29.96S WCI 24 Montauk N/A 36 22 56 W15G26 29.96R WCI 27 $$ NYZ052-065-067-091100- HUDSON VALLEY CITY SKY/WX TMP DP RH WIND PRES REMARKS White Plains PTCLDY 32 16 51 W15G24 29.99S WCI 22 Newburgh PTCLDY 30 21 69 W14G21 29.99S WCI 20 Montgomery CLOUDY 33 18 53 W12 29.99R WCI 24 Poughkeepsie CLOUDY 32 18 56 W16 29.99R WCI 21 Albany LGT SNOW 29 20 69 NW18G29 29.96R WCI 16 $$ NJZ001-105-106-008-010-013-015-019>022-104-091100- NEW JERSEY CITY SKY/WX TMP DP RH WIND PRES REMARKS Newark/Liberty PTCLDY 32 17 54 W16 30.06R WCI 21 Teterboro CLEAR 32 16 51 W8 30.05R WCI 25 Caldwell MOCLDY 31 17 56 VRB6 30.05S WCI 25 Somerville CLEAR 31 16 54 W8 30.07R WCI 23 Linden N/A 31 17 55 NW12G18 30.07S WCI 22 Sussex CLOUDY 30 18 60 SW7 30.03R WCI 23 Andover N/A 29 17 61 VRB5 30.04R WCI 24 Trenton CLEAR 30 15 53 W7G17 30.09S WCI 23 Millville CLEAR 29 18 63 W12 30.16S WCI 19 Atlantic City PTCLDY 29 15 56 W9 30.14R WCI 20 Wrightstown CLEAR 29 16 57 NW13G18 30.08S WCI 19 Toms River PTCLDY 29 18 63 W13 30.11R WCI 19 Belmar CLEAR 28 18 66 W14 30.08R WCI 17 $$ PAZ047>061-062-071-091100- EASTERN PENNSYLVANIA CITY SKY/WX TMP DP RH WIND PRES REMARKS Philadelphia CLEAR 31 15 52 W13 30.15F WCI 21 Allentown MOCLDY 30 16 56 W15G23 30.10R WCI 19 Scranton CLOUDY 29 18 63 SW13 30.04R WCI 19 $$ CTZ002-004>006-009-010-012-RIZ004-006-007-MAZ004-011-015-091100- SOUTHERN NEW ENGLAND IN CT CITY SKY/WX TMP DP RH WIND PRES REMARKS Bradley INTL PTCLDY 27 16 63 W7 29.93S WCI 19 Hartford CLEAR 31 20 63 SW7 29.95S WCI 24 Danbury CLEAR 31 16 54 W12G21 29.97S WCI 22 Wtrbury/Oxford CLEAR 28 16 59 W7 29.94F WCI 21 Bridgeport NOT AVBL Meriden CLEAR 33 18 53 W8 29.96S WCI 26 New Haven CLEAR 33 18 53 W9G16 29.97S WCI 25 Chester N/A 30 18 59 VRB3 29.94R Groton CLEAR 34 20 56 W10 29.95R WCI 26 Wilimantic CLEAR 32 19 58 W8 29.93R WCI 25 IN RI CITY SKY/WX TMP DP RH WIND PRES REMARKS Providence CLEAR 31 19 61 W8 29.92R WCI 23 Block Island PTCLDY 35 21 56 W17G29 29.94R WCI 25 Westerly CLEAR 32 18 56 W8 29.94S WCI 25 IN MA CITY SKY/WX TMP DP RH WIND PRES REMARKS Boston CLEAR 32 18 56 SW13G20 29.85S WCI 22 Worcester CLEAR 26 15 63 W17G29 29.81R WCI 13 Westfield PTCLDY 31 20 63 W10 29.91R WCI 22 Provincetown CLEAR 34 20 56 W20G28 29.86R WCI 23 Nantucket CLEAR 34 19 54 W17G26 29.89R WCI 23 $$ ANZ330-335-338-340-345-350-353-355-091100- COASTAL MARINE OBSERVATIONS STATION/POSITION TIME SKY/WX TEMP WIND PRES VSBY WAVE AIR SEA DIR/SP/G HT/PER (UTC) (F) (DEG/KT/KT) (MB) (MI) (FT/S) NY HARB ENTRANCE 0950 36 52 290/ 25/ 33 1016.8 4/ 5 20 S FIRE ISLAND 0950 38 53 310/ 27/ 35 1016.2 7/ 7 GREAT SOUTH BAY 0930 34 42 N/A 23 SSW MONTAUK P 0850 38 53 280/ 25/ 31 1014.2 6/ 6 15 E BARNEGAT LI 0930 52 N/A 5/ 5 HUDSON CANYON 0950 40 57 1016.4 9/ 8 KINGS POINT 0948 34 46 1016.9 EXECUTION ROCKS 0945 35 250/ 12/ 16 N/A CENTRAL LI SOUND 0930 37 49 280/ 19/ 27 N/A 4/ 5 EASTERN LI SOUND NOT AVBL ROBBINS REEF 0942 33 280/ 16/ 19 1017.8 $$ >>>>>>>>>>>>>>>>>>>>>>>>>>>> KEY <<<<<<<<<<<<<<<<<<<<<<<<<<< > < > SKY/WX - Sky Condition/Present Weather < > TMP - Temperature in Fahrenheit < > DP - Dew Point in Fahrenheit < > RH - Relative Humidity in Percent < > WIND - Direction (from) and Speed in MPH < > PRES - Mean Sea Level Pressure (inches of Hg) < > WCI - Wind Chill Index < > VSB - VISIBILITY IN MILES < > HX - HEAT INDEX < > TC - TEMPERATURE IN CELSIUS < > VRB - VARIABLE WIND DIRECTION < > < >>>>>>>>>>>>>>>>>>>>>>>>>>>> KEY <<<<<<<<<<<<<<<<<<<<<<<<<<<

USA.gov is the U.S. government's official web portal to all federal, state and local government web resources and services.